This demonstration page uses our WeatherBlox Daily Observations layout. Learn more.

Left ArrowRight Arrow

Hourly Observations for January 24, 2022

Temp ( °F °C ) Dew Point ( °F °C ) Humidity (%) Winds ( mph kmh ) Pressure ( in mb ) Visibility ( mi km ) Precip ( " mm )
12:51 am 00:51 Cloudy 54 12.2 33 0.6 45 45 SSW 7 11 30.02 1017 10 16 0.00 0.00
1:51 am 01:51 Cloudy 53 11.7 34 1.1 48 48 SSW 8 13 30.01 1016 10 16 0.00 0.00
2:51 am 02:51 Cloudy 54 12.2 36 2.2 51 51 SW 7 11 30.00 1016 10 16 0.00 0.00
3:51 am 03:51 Cloudy 53 11.7 38 3.3 57 57 SSW 5 7 29.98 1015 10 16 0.00 0.00
4:51 am 04:51 Cloudy 54 12.2 39 3.9 57 57 SSW 7 11 29.96 1015 10 16 0.00 0.00
5:51 am 05:51 Cloudy 54 12.2 40 4.4 59 59 SSW 7 11 29.95 1014 10 16 0.00 0.00
6:51 am 06:51 Cloudy 53 11.7 40 4.4 61 61 SSW 6 9 29.94 1014 10 16 0.00 0.00
7:51 am 07:51 Cloudy 53 11.7 40 4.4 61 61 SSE 3 6 29.93 1014 10 16 0.00 0.00
8:51 am 08:51 Cloudy with Light Rain 51 10.6 44 6.7 77 77 S 9 15 29.96 1014 10 16 0.02 0.51
9:51 am 09:51 Cloudy with Light Rain 50 10 46 7.8 86 86 SW 8 13 29.98 1015 10 16 0.05 1.27
10:51 am 10:51 Cloudy with Light Rain 49 9.4 46 7.8 90 90 SW 6 9 29.98 1015 3 5 0.10 2.54
11:00 am 11:00 Cloudy with Light Rain 49 9.4 45 7.2 86 86 WSW 7 11 29.99 1016 3 4 0.03 0.76
11:06 am 11:06 Cloudy with Light Rain 49 9.4 45 7.2 86 86 WSW 7 11 29.99 1016 5 8 0.03 0.76
11:51 am 11:51 Cloudy with Light Rain 49 9.4 46 7.8 90 90 WSW 8 13 29.96 1015 4 6 0.05 1.27
12:35 pm 12:35 Cloudy with Light Rain 50 10 47 8.3 89 89 W 6 9 29.95 1014 7 11 0.02 0.51
12:51 pm 12:51 Cloudy 50 10 47 8.3 89 89 WSW 5 7 29.92 1013 10 16 0.02 0.51
1:06 pm 13:06 Cloudy 51 10.6 47 8.3 86 86 WSW 6 9 29.92 1013 10 16 0.00 0.00
1:19 pm 13:19 Cloudy 51 10.6 47 8.3 86 86 WSW 3 6 29.92 1013 10 16 0.00 0.00
1:29 pm 13:29 Cloudy 52 11.1 48 8.9 86 86 W 5 7 29.91 1013 10 16 0.00 0.00
1:37 pm 13:37 Cloudy 51 10.6 47 8.3 86 86 SSW 6 9 29.91 1013 10 16 0.00 0.00
1:44 pm 13:44 Cloudy 51 10.6 47 8.3 86 86 WSW 5 7 29.90 1012 10 16 0.00 0.00
1:51 pm 13:51 Cloudy 52 11.1 48 8.9 86 86 SSW 3 6 29.88 1012 10 16 0.00 0.00
2:47 pm 14:47 Cloudy 52 11 48 9 88 88 SSE 6 9 29.88 1012 10 16 0.00 0.00
2:51 pm 14:51 Cloudy 51 10.6 48 8.9 89 89 SSE 6 9 29.86 1011 10 16 0.00 0.00
3:05 pm 15:05 Cloudy with Light Rain 51 10.6 48 8.9 89 89 SSE 7 11 29.87 1011 6 10 0.00 0.00
3:51 pm 15:51 Cloudy 51 10.6 48 8.9 89 89 S 7 11 29.85 1011 10 16 0.00 0.00
4:36 pm 16:36 Cloudy with Mist and Fog 51 10.6 48 8.9 89 89 SW 3 6 29.88 1012 4 6 0.00 0.00
4:42 pm 16:42 Cloudy with Light Rain 51 10.6 49 9.4 92 92 SSW 3 6 29.88 1012 2 3 0.00 0.00
4:49 pm 16:49 Cloudy with Light Rain 52 11 48 9 88 88 SW 5 7 29.88 1012 2 2 0.00 0.00
4:51 pm 16:51 Cloudy with Light Rain 51 10.6 49 9.4 92 92 SW 6 9 29.86 1011 2 3 0.00 0.00
5:00 pm 17:00 Cloudy with Light Rain 51 10.6 48 8.9 89 89 SSW 6 9 29.88 1012 2 3 0.01 0.25
5:15 pm 17:15 Cloudy with Mist and Fog 51 10.6 49 9.4 92 92 S 8 13 29.87 1011 3 5 0.01 0.25
5:51 pm 17:51 Cloudy 50 10 48 8.9 93 93 S 7 11 29.86 1011 10 16 0.01 0.25
5:58 pm 17:58 Cloudy 50 10 49 9.4 96 96 SSW 6 9 29.88 1012 7 11 0.00 0.00
6:20 pm 18:20 Cloudy with Mist and Fog 50 10 48 8.9 93 93 SSW 6 9 29.89 1012 7 11 0.00 0.00
6:28 pm 18:28 Cloudy 50 10 48 8.9 93 93 S 6 9 29.89 1012 10 16 0.00 0.00
6:51 pm 18:51 Cloudy 50 10 48 8.9 93 93 SSW 7 11 29.88 1012 10 16 0.00 0.00
7:51 pm 19:51 Cloudy 50 10 48 8.9 93 93 S 6 9 29.89 1012 9 14 0.00 0.00
8:51 pm 20:51 Cloudy with Mist and Fog 48 8.9 46 7.8 93 93 Calm 29.89 1012 5 8 0.00 0.00
8:59 pm 20:59 Cloudy with Mist and Fog 48 8.9 46 7.8 93 93 SW 3 6 29.91 1013 2 3 0.00 0.00
9:25 pm 21:25 Mostly Cloudy with Fog 44 6.7 44 6.7 100 100 SW 3 6 29.91 1013 1 1 0.00 0.00
9:30 pm 21:30 Mostly Cloudy with Fog 44 6.7 43 6.1 96 96 SW 5 7 29.91 1013 0 0 0.00 0.00
9:51 pm 21:51 Partly Cloudy with Fog 43 6.1 42 5.6 97 97 W 5 7 29.90 1013 0 0 0.00 0.00
9:59 pm 21:59 Mostly Cloudy with Mist and Fog 48 8.9 45 7.2 89 89 SW 7 11 29.92 1013 1 2 0.00 0.00
10:25 pm 22:25 Mostly Cloudy with Mist and Fog 48 8.9 47 8.3 96 96 WSW 7 11 29.93 1014 1 1 0.00 0.00
10:35 pm 22:35 Cloudy with Mist and Fog 47 8.3 46 7.8 97 97 WSW 6 9 29.93 1014 1 2 0.00 0.00
10:42 pm 22:42 Cloudy with Mist and Fog 47 8.3 46 7.8 97 97 WSW 7 11 29.93 1014 0 0 0.00 0.00
10:51 pm 22:51 Cloudy with Fog 47 8.3 46 7.8 97 97 WSW 6 9 29.92 1013 0 0 0.00 0.00
11:51 pm 23:51 Mostly Cloudy with Fog 46 7.8 44 6.7 93 93 NW 3 6 29.92 1013 0 0 0.00 0.00

Powered by AerisWeather